Regional Weather Roundup
Issued by NWS

Home | Current Version | Previous Version | Graphics & Text | Print | Product List | Glossary Off
Versions: 1 2 3 4 5 6 7 8 9 10 11 12 13 14 15 16 17 18 19 20 21 22 23 24 25 26 27 28 29 30 31 32 33 34 35 36 37 38 39 40 41 42 43 44 45 46 47 48 49 50

337
ASUS43 KMKX 021800
RWRWI

WISCONSIN REGIONAL WEATHER ROUNDUP
NATIONAL WEATHER SERVICE MILWAUKEE/SULLIVAN WI
100 PM CDT MON MAY 02 2016

NOTE: "FAIR" INDICATES FEW OR NO CLOUDS BELOW 12,000 FEET WITH NO
SIGNIFICANT WEATHER AND/OR OBSTRUCTIONS TO VISIBILITY.

WIZ001-002-006>008-014>016-023>028-021900-
NORTHWEST WISCONSIN

CITY           SKY/WX    TMP DP  RH WIND       PRES   REMARKS
SUPERIOR ARPT  SUNNY     59  36  42 NE6       30.09F
ASHLAND        SUNNY     62  37  39 N13       30.09F
6HR MIN TEMP:  31; 6HR MAX TEMP:  63;

HAYWARD        SUNNY     62  30  29 SW5       30.07F
6HR MIN TEMP:  32; 6HR MAX TEMP:  62;

SIREN          SUNNY     63  30  29 N7        30.08F
CUMBERLAND     SUNNY     59  30  33 N3        30.08S
RICE LAKE      MOSUNNY   60  35  37 W8        30.09F
CHETEK         MOSUNNY   61  36  39 SW5       30.08F
LADYSMITH      SUNNY     58  34  39 S3        30.11S
EAU CLAIRE     NOT AVBL
MENOMONIE      MOSUNNY   62  35  35 CALM      30.08F
NEW RICHMOND   SUNNY     62  34  34 SE5       30.09F
OSCEOLA        SUNNY     63  36  37 CALM      30.11F
$$

WIZ003>005-009-010-017-018-021900-
NORTH CENTRAL WISCONSIN

CITY           SKY/WX    TMP DP  RH WIND       PRES   REMARKS
MANITOWISH WTR PTSUNNY   57  32  38 N3        30.08S
ARBOR VITAE    PTSUNNY   59  32  35 CALM      30.07F
WOODRUFF       PTSUNNY   59  32  35 CALM      30.07F
RHINELANDER    CLOUDY    57  31  37 NE6       30.08F
6HR MIN TEMP:  36; 6HR MAX TEMP:  60;

EAGLE RIVER    PTSUNNY   57  28  32 W6        30.07F
LAND O LAKES   MOSUNNY   59  29  31 NW8       30.08F
PHILLIPS       PTSUNNY   59  33  37 NW3       30.08F
TOMAHAWK       MOSUNNY   60  32  34 CALM      30.08F
MEDFORD        CLOUDY    58  36  43 W5        30.08F
MERRILL        CLOUDY    57  32  38 N3        30.09F
$$

WIZ029-030-035-036-043>047-021900-
CENTRAL WISCONSIN

CITY           SKY/WX    TMP DP  RH WIND       PRES   REMARKS
WAUSAU         MOSUNNY   63  31  30 CALM      30.05F
6HR MIN TEMP:  40; 6HR MAX TEMP:  63;

MOSINEE        PTSUNNY   57  30  35 N6        30.09F
MARSHFIELD     MOSUNNY   60  31  33 NW3       30.08F
6HR MIN TEMP:  40; 6HR MAX TEMP:  63;

STEVENS POINT  PTSUNNY   58  31  35 CALM      30.08F
WAUPACA        SUNNY     64  29  26 N6        30.09F
WAUTOMA        SUNNY     62  30  29 VRB3      30.07F
6HR MIN TEMP:  37; 6HR MAX TEMP:  62;

WISC RAPIDS    MOSUNNY   63  30  28 MISG      30.09F
6HR MIN TEMP:  37; 6HR MAX TEMP:  63;

CAMP DOUGLAS   NOT AVBL
$$

WIZ011>013-019>022-031-037>040-048>050-021900-
NORTHEAST WISCONSIN

CITY           SKY/WX    TMP DP  RH WIND       PRES   REMARKS
ANTIGO         MOSUNNY   56  31  39 CALM      30.08S
SHAWANO        MOSUNNY   63  29  27 E6        30.08F
OCONTO         SUNNY     59  37  42 SE8       30.08S
STURGEON BAY   SUNNY     57  36  44 N12       30.10F
6HR MIN TEMP:  41; 6HR MAX TEMP:  59;

GREEN BAY      SUNNY     63  36  36 NE9       30.08F
6HR MIN TEMP:  42; 6HR MAX TEMP:  63; 6HR PCP: TRACE;

MANITOWOC      NOT AVBL
APPLETON       MOSUNNY   61  28  29 NE8       30.06F
CLINTONVILLE   SUNNY     61  28  29 NW3       30.07F
OSHKOSH        SUNNY     60  35  39 E10       30.07F
6HR MIN TEMP:  41; 6HR MAX TEMP:  60;

$$

WIZ032>034-041-042-053>061-021900-
SOUTHWEST WISCONSIN

CITY           SKY/WX    TMP DP  RH WIND       PRES   REMARKS
LA CROSSE      MOSUNNY   63  34  33 VRB3      30.08F
6HR MIN TEMP:  40; 6HR MAX TEMP:  63;

SPARTA         MOSUNNY   60  35  38 CALM      30.10S
VIROQUA        PTSUNNY   60  34  37 NE3       30.09F
BOSCOBEL       SUNNY     65  36  34 NE5       30.09F
6HR MIN TEMP:  36; 6HR MAX TEMP:  65;

PRAIRIE DU CHI MOSUNNY   59  43  55 CALM      30.09F
PLATTEVILLE    MOSUNNY   59  41  49 N5        30.09F
$$

WIZ056-057-062-063-064-067-068-021900-
SOUTH CENTRAL WISCONSIN

CITY           SKY/WX    TMP DP  RH WIND       PRES   REMARKS
REEDSBURG      MOSUNNY   57  33  40 NE7       30.08F
BARABOO/DELLS  PTSUNNY   60  31  33 NE5       30.08F
LONE ROCK      NOT AVBL
MINERAL POINT  MOSUNNY   61  32  33 NE8       30.08F
MADISON        PTSUNNY   60  39  45 NE8G25    30.07F
6HR MIN TEMP:  42; 6HR MAX TEMP:  61;

MIDDLETON      PTSUNNY   59  39  46 N8G16     30.08F
WATERTOWN      PTSUNNY   59  38  44 NE12G20   30.06F
MONROE         MOSUNNY   59  37  44 NE15G21   30.07S
JANESVILLE     PTSUNNY   61  36  39 N10       30.06S
$$

WIZ051-052-058>065-066-070>072-021900-
SOUTHEAST WISCONSIN

CITY           SKY/WX    TMP DP  RH WIND       PRES   REMARKS
MILWAUKEE      PTSUNNY   52  38  58 N9        30.07F
6HR MIN TEMP:  44; 6HR MAX TEMP:  53;

WAUKESHA       PTSUNNY   57  36  44 NE9G17    30.06F
MILWAUKEE/TIMM SUNNY     55  30  38 NE10G18   30.07F
RACINE         MOSUNNY   53  38  56 N14       30.08F
6HR MIN TEMP:  44; 6HR MAX TEMP:  54;

BURLINGTON     CLOUDY    58  34  40 NE12G17   30.06S
KENOSHA        MOSUNNY   59  38  45 NE14G20   30.06S
6HR MIN TEMP:  44; 6HR MAX TEMP:  59;

FOND DU LAC    SUNNY     60  37  42 NE10      30.08F
6HR MIN TEMP:  42; 6HR MAX TEMP:  60;

SHEBOYGAN      SUNNY     58  40  51 E9        30.07F
6HR MIN TEMP:  43; 6HR MAX TEMP:  58;

WEST BEND      CLOUDY    57  34  41 NE8       30.06F
JUNEAU         MOSUNNY   57  34  41 NE10      30.08S
$$

LSZ147-162-021900-
LAKE SUPERIOR

STATION/POSITION TIME  TEMP    WIND        PRES    WAVE
                       AIR SEA DIR/SP/G            HT/PER
                 (UTC) (F)     (DEG/KT/KT) (MB)    (FT/S)
W MID LAKE BUOY  1650   38 37  180/  4/  4 1020.8F   1
DEVILS ISLAND    1700   45     120/  4/  5 1020.4F
SAXON HARBOR     1700   42      30/  4/  5 1019.6
$$

LMZ867-665-643>646-021900-
LAKE MICHIGAN

STATION/POSITION TIME  TEMP    WIND        PRES    WAVE
                       AIR SEA DIR/SP/G            HT/PER
                 (UTC) (F)     (DEG/KT/KT) (MB)    (FT/S)
CHAMBERS ISLAND  1700   52      70/  5/  8 1018.6F
N MID LAKE BUOY  1650   40 39  260/  2/  2 1018.8F   0
NORTHPORT PIER   1700   47     330/  4/  7 1018.6S
KEWAUNEE LAKESHO 1700   46      40/  5/  7 1018.4R
SHEBOYGAN LAKESH 1700   43      40/  7/  8 1019.7F
PORT WASHINGTON  1740   48      50/  6/  9 1019.3F
S MID LAKE BUOY  1650   41 41  350/  6/  6 1018.2F   1/ 4
KENOSHA   LAKESH 1700   44      30/ 14/ 16 1018.3S
$$

TC  - TEMPERATURE IN CELSIUS
VSB - VISIBILITY IN STATUTE MILES
WCI - WIND CHILL INDEX
HX  - HEAT INDEX





USA.gov is the U.S. government's official web portal to all federal, state and local government web resources and services.